User: anonymous   Login
Location: Bear Valley Meadows
(40.9851°N, 123.0761°W)
Time: 06:25:49
(UTC+00:00)
Language:

Cosmos 1727 Rocket - Orbit

View from above orbital plane
View from above orbital plane
View from above satellite
View from above satellite

Ground track
Ground track

The orbit data is extracted from the following two-line orbital elements,

1 16511U 86008B   24202.85333366  .00000135  00000-0  12349-3 0  9994
2 16511  82.9435  98.5846 0022829 244.4148 187.6963 13.75894535932247
Epoch (UTC): 20 July 2024 20:28:48
Eccentricity: 0.0022829
inclination: 82.9435°
perigee height: 961 km
apogee height: 995 km
right ascension of ascending node: 98.5846°
argument of perigee: 244.4148°
revolutions per day: 13.75894535
mean anomaly at epoch: 187.6963°
orbit number at epoch: 93224

The dashed part of the orbit path shows where the satellite is in the earth's shadow,  

DLR